| time (UTC) | temp C | wind direction | speed KPH | gust KPH | rain 1hr cm | rain 24hr cm | rain mn cm | humidity % | barometer mb |
| 20260502164017 | 16 | 0 | 0.0 | 0.0 | 0.00 | 0.00 | 0.00 | 64 | 1014.8 |
| 20260502162517 | 16 | 0 | 0.0 | 0.0 | 0.00 | 0.00 | 0.00 | 65 | 1014.6 |
| 20260502161017 | 16 | 116 | 1.6 | 1.6 | 0.00 | 0.00 | 0.00 | 64 | 1014.8 |
| 20260502151017 | 17 | 6 | 1.6 | 3.2 | 0.00 | 0.00 | 0.00 | 63 | 1015.5 |
| 20260502122517 | 15 | 0 | 0.0 | 0.0 | 0.00 | 0.00 | 0.00 | 68 | 1016.9 |
| 20260502121016 | 15 | 179 | 1.6 | 4.8 | 0.00 | 0.00 | 0.00 | 68 | 1017.4 |
| 20260502115517 | 15 | 211 | 1.6 | 3.2 | 0.00 | 0.00 | 0.00 | 68 | 1017.6 |
| 20260502114016 | 16 | 307 | 6.4 | 11.3 | 0.00 | 0.00 | 0.00 | 68 | 1017.6 |
| 20260502112517 | 14 | 271 | 3.2 | 4.8 | 0.00 | 0.00 | 0.00 | 70 | 1017.7 |
| 20260502111016 | 13 | 335 | 8.0 | 11.3 | 0.00 | 0.00 | 0.00 | 72 | 1017.8 |
| 20260502105516 | 13 | 308 | 6.4 | 9.7 | 0.00 | 0.00 | 0.00 | 74 | 1018.0 |
| 20260502104016 | 13 | 284 | 6.4 | 9.7 | 0.00 | 0.00 | 0.00 | 73 | 1018.0 |
| 20260502102516 | 13 | 325 | 9.7 | 11.3 | 0.00 | 0.00 | 0.00 | 74 | 1018.0 |
| 20260502101017 | 13 | 335 | 4.8 | 6.4 | 0.00 | 0.00 | 0.00 | 74 | 1018.4 |
| 20260502091016 | 12 | 220 | 3.2 | 6.4 | 0.00 | 0.00 | 0.00 | 75 | 1018.4 |
| 20260502071017 | 10 | 294 | 8.0 | 11.3 | 0.00 | 0.00 | 0.00 | 85 | 1018.6 |
| 20260502065516 | 10 | 229 | 3.2 | 3.2 | 0.00 | 0.00 | 0.00 | 87 | 1018.5 |
| 20260502064016 | 10 | 186 | 3.2 | 3.2 | 0.00 | 0.00 | 0.00 | 87 | 1018.6 |
| 20260502062516 | 9 | 338 | 4.8 | 6.4 | 0.00 | 0.00 | 0.00 | 88 | 1018.3 |
| 20260502061016 | 9 | 267 | 3.2 | 4.8 | 0.00 | 0.00 | 0.00 | 89 | 1018.4 |
| 20260502055516 | 8 | 160 | 0.0 | 1.6 | 0.00 | 0.00 | 0.00 | 90 | 1018.5 |
| 20260502054016 | 8 | 0 | 0.0 | 0.0 | 0.00 | 0.00 | 0.00 | 90 | 1018.4 |
| 20260502052517 | 9 | 0 | 0.0 | 0.0 | 0.00 | 0.00 | 0.00 | 90 | 1018.4 |
| 20260502051016 | 8 | 0 | 0.0 | 0.0 | 0.00 | 0.00 | 0.00 | 91 | 1018.3 |
| 20260502045517 | 9 | 196 | 0.0 | 1.6 | 0.00 | 0.00 | 0.00 | 90 | 1018.3 |
| 20260502044016 | 9 | 196 | 1.6 | 1.6 | 0.00 | 0.00 | 0.00 | 90 | 1018.5 |
| 20260502042516 | 9 | 214 | 1.6 | 3.2 | 0.00 | 0.00 | 0.00 | 89 | 1018.5 |
| 20260502041016 | 10 | 230 | 4.8 | 4.8 | 0.00 | 0.00 | 0.00 | 89 | 1018.4 |
| 20260502035516 | 10 | 204 | 3.2 | 3.2 | 0.00 | 0.00 | 0.00 | 89 | 1018.3 |
| 20260502034016 | 10 | 211 | 1.6 | 1.6 | 0.00 | 0.00 | 0.00 | 89 | 1018.6 |
| 20260502032516 | 10 | 226 | 3.2 | 6.4 | 0.00 | 0.00 | 0.00 | 88 | 1018.6 |
| 20260502031016 | 10 | 244 | 4.8 | 9.7 | 0.00 | 0.00 | 0.00 | 88 | 1018.4 |
| 20260502025516 | 10 | 174 | 1.6 | 1.6 | 0.00 | 0.00 | 0.00 | 88 | 1018.6 |
| 20260502024016 | 10 | 220 | 3.2 | 3.2 | 0.00 | 0.00 | 0.00 | 89 | 1018.8 |
| 20260502022516 | 10 | 206 | 1.6 | 3.2 | 0.00 | 0.00 | 0.00 | 89 | 1018.8 |
| 20260502021016 | 10 | 0 | 0.0 | 0.0 | 0.00 | 0.00 | 0.00 | 89 | 1018.6 |
| 20260502015516 | 10 | 189 | 0.0 | 1.6 | 0.00 | 0.00 | 0.00 | 88 | 1018.8 |
| 20260502014016 | 10 | 202 | 0.0 | 1.6 | 0.00 | 0.00 | 0.00 | 87 | 1019.1 |
| 20260502012516 | 10 | 202 | 0.0 | 1.6 | 0.00 | 0.00 | 0.00 | 87 | 1019.1 |
| 20260502011016 | 10 | 263 | 3.2 | 4.8 | 0.00 | 0.00 | 0.00 | 86 | 1019.0 |
| 20260502005516 | 11 | 290 | 1.6 | 3.2 | 0.00 | 0.00 | 0.00 | 86 | 1019.5 |
| 20260502004016 | 11 | 267 | 4.8 | 9.7 | 0.00 | 0.00 | 0.00 | 86 | 1019.3 |
| 20260502002516 | 11 | 178 | 1.6 | 1.6 | 0.00 | 0.00 | 0.00 | 86 | 1019.5 |
| 20260502001016 | 11 | 242 | 4.8 | 9.7 | 0.00 | 0.00 | 0.00 | 86 | 1019.5 |
| 20260501235516 | 11 | 251 | 4.8 | 9.7 | 0.00 | 0.00 | 0.00 | 85 | 1019.7 |
| 20260501234016 | 11 | 310 | 3.2 | 4.8 | 0.00 | 0.00 | 0.00 | 86 | 1019.9 |
| 20260501232516 | 11 | 313 | 3.2 | 3.2 | 0.00 | 0.00 | 0.00 | 87 | 1019.7 |
| 20260501231017 | 12 | 268 | 4.8 | 6.4 | 0.00 | 0.00 | 0.00 | 88 | 1020.1 |
| 20260501225516 | 12 | 135 | 3.2 | 3.2 | 0.00 | 0.00 | 0.00 | 88 | 1019.7 |
| 20260501224016 | 12 | 356 | 6.4 | 9.7 | 0.00 | 0.00 | 0.00 | 88 | 1019.6 |
| 20260501222516 | 12 | 236 | 6.4 | 14.5 | 0.00 | 0.00 | 0.00 | 87 | 1019.3 |
| 20260501221016 | 12 | 319 | 8.0 | 12.9 | 0.00 | 0.00 | 0.00 | 87 | 1019.4 |
| 20260501215516 | 12 | 307 | 8.0 | 11.3 | 0.00 | 0.00 | 0.00 | 87 | 1019.6 |
| 20260501214017 | 12 | 288 | 6.4 | 11.3 | 0.00 | 0.00 | 0.00 | 86 | 1019.5 |
| 20260501212516 | 12 | 241 | 9.7 | 14.5 | 0.00 | 0.00 | 0.00 | 86 | 1019.3 |
| 20260501211016 | 12 | 225 | 8.0 | 11.3 | 0.00 | 0.00 | 0.00 | 84 | 1019.3 |
| 20260501205516 | 13 | 265 | 9.7 | 11.3 | 0.00 | 0.00 | 0.00 | 83 | 1019.5 |
| 20260501204016 | 13 | 302 | 8.0 | 12.9 | 0.00 | 0.00 | 0.00 | 82 | 1019.6 |
| 20260501202516 | 13 | 279 | 9.7 | 16.1 | 0.00 | 0.00 | 0.00 | 80 | 1019.3 |
| 20260501201016 | 14 | 238 | 8.0 | 11.3 | 0.00 | 0.00 | 0.00 | 76 | 1019.3 |
| 20260501195516 | 14 | 252 | 8.0 | 11.3 | 0.00 | 0.00 | 0.00 | 76 | 1019.5 |
| 20260501194016 | 14 | 303 | 8.0 | 17.7 | 0.00 | 0.00 | 0.00 | 75 | 1019.4 |
| 20260501192516 | 15 | 287 | 11.3 | 17.7 | 0.00 | 0.00 | 0.00 | 71 | 1019.3 |
| 20260501191017 | 15 | 239 | 8.0 | 16.1 | 0.00 | 0.00 | 0.00 | 69 | 1019.2 |
| 20260501185516 | 15 | 232 | 8.0 | 9.7 | 0.00 | 0.00 | 0.00 | 70 | 1019.3 |
| 20260501184016 | 15 | 254 | 12.9 | 19.3 | 0.00 | 0.00 | 0.00 | 68 | 1019.1 |
| 20260501182516 | 16 | 277 | 12.9 | 19.3 | 0.00 | 0.00 | 0.00 | 67 | 1018.9 |
| 20260501181016 | 17 | 278 | 9.7 | 16.1 | 0.00 | 0.00 | 0.00 | 68 | 1018.9 |
| 20260501175516 | 17 | 278 | 6.4 | 9.7 | 0.00 | 0.00 | 0.00 | 67 | 1019.0 |
| 20260501174016 | 18 | 302 | 9.7 | 16.1 | 0.00 | 0.00 | 0.00 | 63 | 1018.8 |